Vertical_Velocity
-0 -8 1 5 1 3 -1 3 4 -3 5 -3 1 0 -9 1 -1 -4 5 1 2 4 -2 -1 -1 1 -3 -1 3 0 -0 0 2 3 1 0 1 -0 2 -0 2 1 1
-5 -3 -3 1 -3 -3 6 3 3 0 3 2 -4 2 -1 -5 5 12 -1 7 1 2 -2 -3 0 1 0 1 0 -0 -0 -1 -1 0 1 -1 -1 0 -1 -0 1 -1 2
-7 -5 -3 2 8 -3 -3 4 4 5 2 1 9 4 9 9 8 -1 1 -5 5 3 4 1 2 -0 2 -1 2 -1 1 1 -1 -1 -0 -1 -1 1 -1 1 1 2 0
1 -0 -0 0 2 -1 4 -0 3 3 4 3 0 1 1 -7 -14 -13 -0 -2 -2 -0 0 0 2 5 5 3 6 7 3 1 0 4 -0 1 1 0 -2 -1 0 -1 -0
3 7 5 2 0 -5 -3 0 -1 2 4 4 4 0 5 10 5 -0 -2 2 2 5 2 3 3 3 4 3 4 1 -0 1 1 1 1 1 -1 1 -0 -1 -1 -0 0
3 3 3 -2 2 1 1 -3 -1 -0 1 1 3 -2 2 -0 4 5 5 4 3 0 1 -2 2 2 3 0 4 1 0 2 -1 -4 1 3 0 1 -2 0 1 0 1
-5 -5 -5 -2 0 5 4 2 0 -1 -1 -1 0 -1 -2 1 9 5 4 -0 1 -6 -3 0 -2 1 5 7 3 1 2 1 5 1 3 1 5 0 -2 5 -0 -2 -3
-0 -4 -6 -4 -1 1 1 5 3 0 3 3 5 4 4 -0 -2 -2 0 8 5 5 6 3 3 3 4 4 2 1 6 5 0 2 1 6 -5 3 -1 -2 2 -0 -0
-3 -1 -3 -5 -5 -2 0 1 3 -0 -1 1 -0 1 2 -1 -5 -1 4 2 3 5 7 2 5 6 3 8 1 2 7 1 -2 3 -2 4 -2 -11 1 -3 -1 1 1
-3 -1 -1 -1 -4 -2 -6 3 -2 -3 -2 -3 -2 0 2 1 1 0 1 2 5 0 3 6 4 1 1 2 3 4 5 7 -1 -6 0 -4 0 -4 0 0 -2 -3 1
-2 -5 1 3 -1 -1 -1 2 4 5 -1 -1 0 -3 -0 1 2 1 2 4 8 7 2 3 3 -0 3 5 3 2 0 2 -2 -7 -17 4 -6 -2 2 0 0 -2 -1
-3 -2 -3 -4 -3 -4 2 1 1 0 1 5 -2 0 1 5 2 1 7 5 8 7 7 5 5 8 7 7 3 3 3 -1 0 -6 -1 5 -4 -2 1 -1 1 -4 2
-3 -1 0 -5 -1 -2 -1 -0 -1 2 1 0 -3 -1 4 6 0 4 3 8 2 6 1 1 5 6 3 3 4 6 0 6 -4 2 2 -9 -2 -3 2 -1 -0 1 1
-1 -1 -3 1 -1 -3 2 -3 -1 4 -6 0 1 2 4 2 3 7 5 4 6 3 3 4 1 0 2 4 -0 -2 -4 -0 5 9 2 1 -0 -0 3 -1 -1 2 -3
-3 -2 0 3 -1 0 0 -1 -2 -7 -3 2 4 2 3 6 3 4 4 -0 2 4 6 1 3 4 2 0 1 5 8 -9 -3 7 2 -0 3 -0 1 -1 -2 -1 1
-2 2 2 -1 1 -3 -5 -4 -3 -2 2 -6 -1 2 -1 4 5 2 -1 10 6 2 5 3 -0 -2 4 2 3 -6 -9 -3 -3 5 -0 1 1 -1 -0 1 2 3 -1
-0 -2 2 -3 1 -0 -1 -3 1 -0 0 0 -4 -2 3 3 3 4 4 4 6 -1 -1 -0 1 0 -8 -4 -2 -7 -0 4 2 4 -4 -2 -2 -2 -2 -0 0 -3 -2
0 -2 4 -2 -2 -1 -1 2 1 2 -0 -2 -2 -3 -3 -2 -0 5 0 -3 -2 -4 -2 -2 -2 -3 -10 6 -2 2 2 3 -3 -4 -5 -2 -2 1 -0 -0 -2 1 -2
1 -3 1 -1 1 3 2 5 1 4 7 0 0 -1 -3 -1 0 3 -2 0 -1 11 -5 5 -10 -6 7 -1 4 -1 -7 -2 -4 -2 -1 -1 -1 -1 1 -2 -2 -3 -4
-1 -2 4 2 1 -1 2 3 1 3 5 1 -1 -2 1 0 2 8 -4 -8 5 7 -10 -15 -3 6 -0 -1 -1 -13 -3 -2 5 4 -4 1 1 -1 -3 4 0 -5 -2
2 -1 -0 0 -2 -1 -2 1 4 1 0 3 2 -2 2 5 10 -5 1 5 3 -10 -5 3 6 1 -4 2 -2 -1 3 0 1 -3 -1 0 -0 -2 -1 -1 -0 1 2
-1 -0 1 -0 -0 -1 5 -1 -1 -1 -2 2 2 5 4 5 7 -0 -2 -1 -1 1 -2 4 3 0 -4 -1 0 2 -0 -1 -4 -1 0 -2 -4 -2 1 1 1 2 0
-0 -1 1 1 -0 -2 2 -3 0 4 2 4 1 -3 1 -1 -1 3 0 -1 -2 -2 -1 -1 -2 -2 -1 3 3 -2 -2 1 -0 -3 -2 1 1 -0 0 1 -0 -1 -2
-2 -0 0 -4 -1 1 1 -1 1 1 -0 -1 1 2 1 -3 -2 -3 -3 -1 0 3 5 2 1 2 -0 -3 -2 1 1 -3 -1 -1 2 1 -0 -0 -2 -2 0 -0 -1
-2 -2 0 -2 -2 -1 1 1 -1 -1 -1 -1 -1 -2 -1 0 0 1 1 3 2 1 -2 -3 -2 -1 2 0 -3 -3 -1 -0 1 -1 0 -1 -1 -1 -0 1 -0 0 0
-1 -2 -3 -1 -1 1 0 -0 -1 -3 -1 -1 -0 -0 1 1 0 1 0 -0 -1 -2 -1 1 1 -3 -3 -1 1 0 1 -0 -2 -1 -3 -2 -2 -2 -3 -1 -2 1 -0
Height
1457 1461 1463 1465 1467 1469 1471 1475 1479 1482 1484 1484 1487 1491 1492 1496 1499 1501 1502 1504 1506 1508 1512 1515 1518 1519 1521 1523 1526 1527 1529 1530 1531 1530 1530 1531 1530 1529 1529 1529 1530 1529 1528
1450 1452 1456 1459 1460 1461 1464 1467 1470 1474 1477 1479 1481 1483 1487 1489 1492 1496 1499 1499 1501 1504 1506 1510 1512 1514 1516 1519 1520 1523 1525 1526 1527 1528 1527 1528 1528 1526 1526 1527 1527 1527 1526
1442 1443 1446 1450 1453 1455 1458 1461 1464 1466 1470 1472 1475 1477 1479 1482 1485 1488 1493 1495 1496 1499 1501 1504 1507 1509 1511 1512 1515 1518 1519 1521 1522 1524 1525 1523 1523 1522 1523 1523 1524 1524 1523
1435 1436 1438 1439 1442 1447 1452 1456 1459 1460 1462 1465 1465 1468 1469 1471 1476 1482 1486 1489 1490 1493 1495 1499 1503 1503 1504 1507 1510 1512 1514 1516 1518 1518 1519 1519 1520 1519 1520 1520 1519 1520 1519
1431 1434 1436 1437 1438 1440 1443 1448 1451 1454 1456 1458 1458 1461 1463 1465 1468 1473 1478 1481 1484 1487 1490 1493 1496 1498 1500 1502 1505 1506 1509 1511 1513 1514 1515 1514 1515 1514 1516 1515 1515 1516 1515
1435 1434 1435 1435 1437 1438 1440 1443 1445 1448 1450 1452 1453 1455 1457 1459 1462 1466 1469 1473 1477 1480 1483 1486 1490 1492 1494 1497 1499 1501 1503 1505 1507 1509 1510 1511 1512 1508 1512 1511 1511 1512 1512
1439 1438 1437 1437 1437 1438 1440 1440 1441 1443 1445 1446 1447 1449 1451 1453 1456 1458 1461 1464 1467 1471 1475 1477 1481 1485 1488 1491 1494 1497 1498 1500 1502 1503 1505 1506 1507 1504 1508 1507 1506 1505 1505
1442 1442 1442 1440 1440 1439 1438 1438 1439 1440 1441 1442 1442 1443 1444 1446 1448 1452 1455 1457 1461 1464 1468 1471 1474 1478 1482 1486 1489 1493 1494 1495 1497 1499 1500 1500 1503 1503 1504 1505 1504 1501 1499
1442 1442 1441 1440 1440 1439 1438 1437 1436 1436 1437 1437 1437 1437 1438 1439 1441 1444 1446 1449 1453 1458 1461 1465 1468 1471 1476 1481 1484 1486 1488 1489 1492 1494 1496 1496 1498 1499 1499 1499 1499 1499 1496
1440 1439 1438 1436 1436 1435 1434 1434 1434 1432 1432 1432 1432 1431 1431 1432 1434 1436 1438 1442 1446 1451 1455 1459 1462 1467 1473 1477 1478 1481 1483 1484 1487 1490 1490 1492 1493 1495 1494 1493 1492 1492 1492
1438 1435 1433 1432 1430 1428 1425 1426 1427 1427 1427 1427 1425 1424 1423 1424 1426 1429 1431 1435 1440 1445 1449 1453 1458 1464 1468 1470 1473 1476 1479 1481 1483 1486 1485 1488 1489 1490 1489 1488 1486 1486 1486
1436 1433 1430 1429 1427 1425 1422 1422 1423 1422 1420 1419 1418 1417 1416 1417 1420 1422 1425 1429 1435 1439 1444 1450 1456 1459 1462 1466 1469 1473 1476 1478 1479 1479 1483 1482 1483 1486 1484 1483 1482 1481 1480
1432 1428 1426 1424 1422 1421 1421 1419 1419 1417 1414 1413 1412 1413 1413 1414 1415 1418 1423 1427 1432 1437 1441 1447 1451 1456 1461 1465 1468 1472 1475 1476 1478 1478 1478 1477 1479 1480 1480 1478 1477 1475 1473
1428 1425 1422 1420 1419 1418 1417 1416 1415 1412 1411 1410 1408 1410 1411 1413 1414 1417 1421 1427 1429 1433 1438 1444 1450 1455 1460 1465 1468 1471 1475 1477 1477 1476 1474 1475 1474 1475 1475 1473 1472 1469 1466
1426 1422 1420 1418 1417 1417 1416 1415 1413 1413 1410 1409 1408 1409 1411 1413 1414 1417 1421 1424 1427 1432 1438 1443 1451 1458 1462 1465 1466 1470 1471 1474 1472 1476 1472 1473 1472 1471 1469 1467 1466 1464 1461
1425 1420 1419 1418 1417 1417 1416 1415 1413 1411 1409 1409 1409 1411 1413 1414 1415 1417 1422 1426 1428 1435 1442 1446 1451 1457 1462 1463 1466 1463 1469 1473 1474 1474 1470 1471 1470 1467 1465 1463 1461 1460 1457
1427 1424 1421 1421 1419 1418 1417 1416 1414 1412 1410 1409 1411 1414 1417 1418 1419 1423 1426 1431 1433 1438 1445 1449 1454 1457 1461 1464 1463 1466 1469 1470 1469 1468 1467 1467 1465 1463 1460 1458 1455 1453 1452
1427 1425 1424 1423 1422 1420 1419 1417 1416 1414 1412 1414 1416 1419 1422 1424 1424 1427 1429 1433 1438 1443 1447 1452 1457 1459 1457 1464 1464 1466 1468 1468 1466 1465 1465 1463 1461 1458 1455 1451 1449 1447 1445
1426 1425 1425 1424 1423 1423 1422 1421 1419 1418 1416 1416 1418 1420 1425 1427 1430 1430 1433 1438 1442 1447 1449 1452 1456 1458 1462 1462 1463 1465 1467 1466 1464 1461 1460 1458 1456 1452 1449 1447 1444 1441 1438
1427 1426 1426 1425 1425 1425 1425 1423 1422 1421 1420 1420 1421 1424 1429 1433 1435 1436 1439 1443 1448 1448 1450 1455 1461 1462 1462 1463 1460 1462 1464 1462 1461 1457 1456 1454 1451 1447 1446 1444 1439 1434 1431
1427 1427 1427 1427 1426 1427 1428 1427 1426 1425 1426 1428 1430 1433 1436 1439 1440 1441 1445 1447 1448 1451 1456 1460 1461 1460 1461 1462 1461 1462 1460 1458 1455 1453 1452 1449 1446 1444 1441 1438 1433 1429 1426
1427 1428 1428 1428 1430 1431 1432 1431 1431 1432 1433 1435 1437 1439 1441 1443 1444 1447 1449 1452 1454 1456 1459 1460 1460 1460 1461 1461 1460 1458 1456 1455 1452 1450 1447 1444 1441 1437 1434 1431 1428 1424 1421
1429 1429 1430 1431 1432 1433 1434 1434 1435 1438 1440 1442 1443 1445 1446 1448 1451 1453 1454 1455 1457 1459 1460 1460 1459 1460 1459 1458 1457 1456 1454 1452 1449 1445 1442 1439 1435 1432 1429 1426 1424 1421 1418
1431 1432 1433 1434 1435 1437 1439 1440 1442 1444 1446 1447 1448 1450 1452 1453 1454 1455 1456 1457 1459 1459 1459 1459 1459 1459 1458 1456 1454 1453 1450 1447 1444 1441 1438 1435 1432 1429 1426 1424 1422 1419 1415
1434 1436 1438 1439 1440 1442 1444 1445 1447 1449 1450 1452 1453 1454 1455 1456 1457 1458 1459 1460 1460 1460 1459 1458 1457 1456 1455 1453 1451 1449 1446 1443 1440 1437 1434 1432 1429 1426 1424 1422 1419 1415 1411
1436 1438 1441 1442 1444 1446 1448 1449 1451 1453 1454 1455 1456 1457 1458 1459 1459 1460 1460 1459 1459 1458 1457 1456 1455 1453 1452 1450 1448 1446 1443 1440 1437 1434 1431 1429 1427 1424 1421 1418 1415 1411 1407